When you browse on this site, cookies collect data to enhance your experience and personalize the content and advertising you see.
Visit our Privacy Policy to learn more. By continuing to use the site, you agree to this use of cookies and data.
  • en France
  • Liste des pays
  • À 7 jours
  • Température de l'eau
  • Carte météo
  • Widgets météo
  • user-avatar
    Se connecter

    Météo par heure à Baden-Baden

    Ce jour, 21 Février, Vendredi

    Heure Température Précipitation Vent Pression Humidité
    00:00 +3°C° 0.8 mm 6 m/s 732 mmHg 78%
    01:00 +3°C° 0 mm 6 m/s 733 mmHg 79%
    02:00 +2°C° 0 mm 5 m/s 734 mmHg 80%
    03:00 +1°C° 0 mm 5 m/s 735 mmHg 81%
    04:00 +1°C° 0 mm 5 m/s 736 mmHg 83%
    05:00 0°C° 0 mm 4 m/s 737 mmHg 84%
    06:00 0°C° 0 mm 4 m/s 738 mmHg 85%
    07:00 +1°C° 0 mm 3 m/s 739 mmHg 86%
    14:00 +5°C° 0 mm 4 m/s 740 mmHg 60%
    15:00 +7°C° 0 mm 3 m/s 739 mmHg 59%
    16:00 +7°C° 0 mm 3 m/s 739 mmHg 58%
    17:00 +5°C° 0 mm 3 m/s 739 mmHg 63%
    18:00 +5°C° 0 mm 2 m/s 739 mmHg 68%
    19:00 +4°C° 0 mm 2 m/s 739 mmHg 72%
    20:00 +3°C° 0 mm 2 m/s 739 mmHg 73%
    21:00 +3°C° 0 mm 2 m/s 739 mmHg 74%
    22:00 +3°C° 0 mm 2 m/s 739 mmHg 74%
    23:00 +3°C° 0 mm 2 m/s 739 mmHg 75%

    Demain, 22 Février, Samedi

    Heure Température Précipitation Vent Pression Humidité
    00:00 +2°C° 0 mm 2 m/s 739 mmHg 75%
    01:00 +2°C° 0 mm 2 m/s 739 mmHg 75%
    02:00 +1°C° 0 mm 3 m/s 739 mmHg 75%
    03:00 +1°C° 0 mm 3 m/s 738 mmHg 74%
    04:00 +1°C° 0 mm 3 m/s 738 mmHg 73%
    05:00 +1°C° 0 mm 3 m/s 738 mmHg 72%
    06:00 0°C° 0 mm 3 m/s 738 mmHg 71%
    07:00 0°C° 0 mm 3 m/s 738 mmHg 70%
    08:00 +2°C° 0 mm 3 m/s 738 mmHg 64%
    09:00 +3°C° 0 mm 4 m/s 738 mmHg 59%
    10:00 +5°C° 0 mm 4 m/s 738 mmHg 53%
    11:00 +6°C° 0 mm 4 m/s 737 mmHg 51%
    12:00 +8°C° 0 mm 5 m/s 737 mmHg 49%
    13:00 +9°C° 0 mm 5 m/s 737 mmHg 46%
    14:00 +9°C° 0 mm 5 m/s 737 mmHg 48%
    15:00 +9°C° 0 mm 5 m/s 736 mmHg 49%
    16:00 +9°C° 0 mm 5 m/s 736 mmHg 50%
    17:00 +8°C° 0 mm 5 m/s 737 mmHg 53%
    18:00 +7°C° 0 mm 5 m/s 737 mmHg 57%
    19:00 +6°C° 0 mm 5 m/s 737 mmHg 60%
    20:00 +6°C° 0 mm 5 m/s 738 mmHg 63%
    21:00 +7°C° 0 mm 5 m/s 738 mmHg 66%
    22:00 +7°C° 0 mm 6 m/s 738 mmHg 69%
    23:00 +7°C° 0.1 mm 6 m/s 738 mmHg 72%

    Après-demain, 23 Février, Dimanche

    Heure Température Précipitation Vent Pression Humidité
    00:00 +5°C° 0.1 mm 6 m/s 738 mmHg 75%
    01:00 +5°C° 0.1 mm 6 m/s 738 mmHg 78%
    02:00 +5°C° 0.2 mm 6 m/s 738 mmHg 79%
    03:00 +5°C° 0.2 mm 6 m/s 738 mmHg 81%
    04:00 +7°C° 0.2 mm 6 m/s 738 mmHg 82%
    05:00 +7°C° 0.3 mm 6 m/s 738 mmHg 83%
    06:00 +7°C° 0.3 mm 6 m/s 737 mmHg 84%
    07:00 +7°C° 0.3 mm 6 m/s 737 mmHg 86%
    08:00 +7°C° 0.2 mm 6 m/s 737 mmHg 85%
    09:00 +7°C° 0.2 mm 6 m/s 737 mmHg 85%
    10:00 +7°C° 0.2 mm 6 m/s 736 mmHg 84%
    11:00 +7°C° 0 mm 6 m/s 736 mmHg 82%
    12:00 +8°C° 0 mm 7 m/s 736 mmHg 81%
    13:00 +8°C° 0 mm 7 m/s 735 mmHg 79%
    14:00 +9°C° 0 mm 8 m/s 735 mmHg 79%
    15:00 +9°C° 0 mm 8 m/s 734 mmHg 80%
    16:00 +8°C° 0 mm 9 m/s 734 mmHg 80%
    17:00 +10°C° 0.1 mm 9 m/s 734 mmHg 80%
    18:00 +10°C° 0.1 mm 9 m/s 734 mmHg 80%
    19:00 +10°C° 0.1 mm 9 m/s 734 mmHg 81%
    20:00 +10°C° 0.2 mm 8 m/s 734 mmHg 81%
    21:00 +10°C° 0.2 mm 8 m/s 734 mmHg 82%
    22:00 +10°C° 0.2 mm 8 m/s 734 mmHg 82%
    23:00 +10°C° 0.3 mm 8 m/s 734 mmHg 84%

    24 Février, Lundi

    Heure Température Précipitation Vent Pression Humidité
    00:00 +10°C° 0.3 mm 7 m/s 735 mmHg 85%
    01:00 +10°C° 0.3 mm 7 m/s 736 mmHg 87%
    02:00 +9°C° 0.4 mm 6 m/s 736 mmHg 88%
    03:00 +9°C° 0.4 mm 5 m/s 736 mmHg 90%
    04:00 +9°C° 0.4 mm 5 m/s 736 mmHg 91%
    05:00 +8°C° 0.4 mm 4 m/s 736 mmHg 92%
    06:00 +9°C° 0.4 mm 3 m/s 736 mmHg 92%
    07:00 +8°C° 0.4 mm 2 m/s 737 mmHg 93%
    08:00 +8°C° 0.1 mm 2 m/s 737 mmHg 93%
    09:00 +8°C° 0.1 mm 2 m/s 736 mmHg 93%
    10:00 +8°C° 0.1 mm 2 m/s 736 mmHg 92%
    11:00 +9°C° 0 mm 2 m/s 736 mmHg 89%
    12:00 +10°C° 0 mm 2 m/s 735 mmHg 85%
    13:00 +11°C° 0 mm 3 m/s 735 mmHg 82%
    14:00 +12°C° 0 mm 3 m/s 734 mmHg 79%
    15:00 +13°C° 0 mm 3 m/s 733 mmHg 77%
    16:00 +13°C° 0 mm 3 m/s 732 mmHg 75%
    17:00 +12°C° 0 mm 3 m/s 732 mmHg 79%
    18:00 +11°C° 0 mm 3 m/s 731 mmHg 84%
    19:00 +10°C° 0 mm 3 m/s 731 mmHg 88%
    20:00 +9°C° 0 mm 3 m/s 731 mmHg 88%
    21:00 +9°C° 0 mm 3 m/s 730 mmHg 89%
    22:00 +8°C° 0 mm 4 m/s 730 mmHg 89%
    23:00 +7°C° 0 mm 4 m/s 730 mmHg 88%

    25 Février, Mardi

    Heure Température Précipitation Vent Pression Humidité
    00:00 +7°C° 0 mm 4 m/s 730 mmHg 88%
    01:00 +7°C° 0 mm 4 m/s 729 mmHg 87%
    02:00 +7°C° 0 mm 4 m/s 729 mmHg 86%
    03:00 +7°C° 0 mm 4 m/s 728 mmHg 86%
    04:00 +7°C° 0 mm 4 m/s 728 mmHg 85%
    05:00 +6°C° 0 mm 4 m/s 728 mmHg 84%
    06:00 +6°C° 0 mm 4 m/s 727 mmHg 83%
    07:00 +6°C° 0 mm 4 m/s 727 mmHg 82%
    08:00 +6°C° 0.1 mm 4 m/s 727 mmHg 79%
    09:00 +7°C° 0.1 mm 5 m/s 726 mmHg 75%
    10:00 +7°C° 0.1 mm 5 m/s 726 mmHg 72%
    11:00 +7°C° 0.8 mm 6 m/s 726 mmHg 76%
    12:00 +5°C° 0.8 mm 6 m/s 726 mmHg 80%
    13:00 +5°C° 0.8 mm 6 m/s 725 mmHg 84%
    14:00 +5°C° 0.4 mm 6 m/s 725 mmHg 85%
    15:00 +5°C° 0.4 mm 6 m/s 725 mmHg 86%
    16:00 +5°C° 0.4 mm 7 m/s 724 mmHg 87%
    17:00 +5°C° 1.2 mm 6 m/s 724 mmHg 88%
    18:00 +5°C° 1.2 mm 6 m/s 724 mmHg 89%
    19:00 +5°C° 1.2 mm 6 m/s 724 mmHg 90%
    20:00 +4°C° 0.7 mm 6 m/s 724 mmHg 89%
    21:00 +4°C° 0.7 mm 6 m/s 724 mmHg 87%
    22:00 +3°C° 0.7 mm 6 m/s 723 mmHg 85%
    23:00 +3°C° 0 mm 6 m/s 723 mmHg 83%

    26 Février, Mercredi

    Heure Température Précipitation Vent Pression Humidité
    00:00 +2°C° 0 mm 6 m/s 723 mmHg 80%
    01:00 +2°C° 0 mm 7 m/s 722 mmHg 77%
    02:00 0°C° 0.2 mm 7 m/s 722 mmHg 81%
    03:00 0°C° 0.2 mm 7 m/s 722 mmHg 85%
    04:00 0°C° 0.2 mm 7 m/s 722 mmHg 89%
    05:00 0°C° 0.8 mm 8 m/s 722 mmHg 88%
    06:00 0°C° 0.8 mm 8 m/s 721 mmHg 87%
    07:00 0°C° 0.8 mm 9 m/s 721 mmHg 86%
    08:00 0°C° 0.9 mm 9 m/s 722 mmHg 80%
    09:00 -1°C° 0.9 mm 9 m/s 722 mmHg 74%
    10:00 -1°C° 0.9 mm 9 m/s 723 mmHg 68%
    11:00 -1°C° 0.1 mm 9 m/s 723 mmHg 65%
    12:00 0°C° 0.1 mm 10 m/s 724 mmHg 63%
    13:00 +1°C° 0.1 mm 10 m/s 725 mmHg 60%
    14:00 0°C° 0.4 mm 9 m/s 724 mmHg 67%
    15:00 0°C° 0.4 mm 8 m/s 724 mmHg 73%
    16:00 -1°C° 0.4 mm 7 m/s 724 mmHg 80%
    17:00 -1°C° 0.9 mm 7 m/s 724 mmHg 84%
    18:00 -2°C° 0.9 mm 6 m/s 724 mmHg 88%
    19:00 -2°C° 0.9 mm 6 m/s 725 mmHg 92%
    20:00 -3°C° 0.4 mm 6 m/s 725 mmHg 89%
    21:00 -2°C° 0.4 mm 5 m/s 726 mmHg 85%
    22:00 -2°C° 0.4 mm 5 m/s 727 mmHg 81%
    23:00 -2°C° 0.1 mm 5 m/s 727 mmHg 83%
    Voir plus